| time (UTC) | temp F | wind direction | speed knots | gust knots | rain 1hr in | rain 24hr in | rain mn in | humidity % | barometer mb |
| 20260503194014 | 61 | 115 | 0.0 | 0.0 | 0.00 | 0.01 | 0.01 | 77 | 1013.1 |
| 20260503193514 | 61 | 173 | 0.0 | 0.0 | 0.00 | 0.01 | 0.01 | 77 | 1013.1 |
| 20260503193015 | 61 | 109 | 0.0 | 0.0 | 0.00 | 0.01 | 0.01 | 76 | 1013.1 |
| 20260503192517 | 61 | 104 | 0.0 | 0.0 | 0.00 | 0.01 | 0.01 | 78 | 1013.1 |
| 20260503192014 | 61 | 219 | 0.0 | 0.0 | 0.00 | 0.01 | 0.01 | 76 | 1013.0 |
| 20260503191513 | 61 | 188 | 0.0 | 0.0 | 0.00 | 0.01 | 0.01 | 76 | 1013.0 |
| 20260503191016 | 61 | 188 | 0.0 | 0.0 | 0.00 | 0.01 | 0.01 | 75 | 1013.1 |
| 20260503190512 | 61 | 90 | 0.0 | 0.0 | 0.00 | 0.01 | 0.01 | 73 | 1013.0 |
| 20260503190013 | 62 | 101 | 0.0 | 0.0 | 0.00 | 0.01 | 0.01 | 70 | 1013.0 |
| 20260503185516 | 62 | 168 | 0.0 | 0.0 | 0.00 | 0.01 | 0.01 | 68 | 1012.9 |
| 20260503185011 | 62 | 257 | 0.0 | 0.0 | 0.00 | 0.01 | 0.01 | 68 | 1012.9 |
| 20260503184510 | 61 | 275 | 0.0 | 0.0 | 0.00 | 0.01 | 0.01 | 69 | 1013.0 |
| 20260503184013 | 61 | 92 | 0.0 | 0.0 | 0.00 | 0.01 | 0.01 | 69 | 1012.9 |
| 20260503183508 | 60 | 192 | 0.0 | 0.0 | 0.00 | 0.01 | 0.01 | 74 | 1013.0 |
| 20260503183006 | 60 | 105 | 0.0 | 0.0 | 0.00 | 0.01 | 0.01 | 77 | 1013.0 |
| 20260503182509 | 59 | 104 | 0.0 | 0.0 | 0.00 | 0.01 | 0.01 | 75 | 1012.9 |
| 20260503182005 | 59 | 52 | 0.0 | 0.0 | 0.00 | 0.01 | 0.01 | 77 | 1013.0 |
| 20260503181506 | 59 | 99 | 0.0 | 0.0 | 0.00 | 0.01 | 0.01 | 77 | 1012.9 |
| 20260503181004 | 59 | 95 | 0.0 | 0.0 | 0.00 | 0.01 | 0.01 | 77 | 1013.0 |
| 20260503180503 | 58 | 96 | 0.0 | 0.0 | 0.00 | 0.01 | 0.01 | 77 | 1013.0 |
| 20260503180007 | 58 | 100 | 0.0 | 0.0 | 0.00 | 0.01 | 0.01 | 78 | 1013.0 |
| 20260503175501 | 58 | 121 | 0.0 | 0.0 | 0.00 | 0.01 | 0.01 | 78 | 1013.1 |
| 20260503175001 | 57 | 227 | 0.0 | 0.0 | 0.00 | 0.01 | 0.01 | 77 | 1013.1 |
| 20260503174503 | 57 | 219 | 0.0 | 0.0 | 0.00 | 0.01 | 0.01 | 78 | 1013.1 |
| 20260503174001 | 58 | 219 | 0.0 | 0.0 | 0.00 | 0.01 | 0.01 | 77 | 1013.1 |
| 20260503173601 | 58 | 219 | 0.0 | 0.0 | 0.00 | 0.01 | 0.01 | 75 | 1013.1 |
| 20260503173131 | 58 | 205 | 0.0 | 0.0 | 0.00 | 0.01 | 0.01 | 77 | 1012.9 |
| 20260503172559 | 58 | 299 | 0.0 | 0.0 | 0.00 | 0.01 | 0.01 | 76 | 1012.9 |
| 20260503172102 | 58 | 253 | 0.0 | 0.0 | 0.00 | 0.01 | 0.01 | 80 | 1012.9 |
| 20260503171556 | 57 | 293 | 0.0 | 0.0 | 0.00 | 0.01 | 0.01 | 81 | 1012.9 |
| 20260503171055 | 56 | 282 | 0.0 | 0.0 | 0.00 | 0.01 | 0.01 | 83 | 1012.9 |
| 20260503170554 | 56 | 282 | 0.0 | 0.0 | 0.00 | 0.01 | 0.01 | 83 | 1013.0 |
| 20260503150539 | 53 | 242 | 0.0 | 0.0 | 0.00 | 0.00 | 0.00 | 94 | 1012.5 |
| 20260503131025 | 52 | 198 | 0.0 | 0.0 | 0.00 | 0.00 | 0.00 | 95 | 1011.2 |
| 20260503130525 | 52 | 198 | 0.0 | 0.0 | 0.00 | 0.00 | 0.00 | 95 | 1011.1 |
| 20260503120121 | 52 | 198 | 0.0 | 0.0 | 0.00 | 0.01 | 0.00 | 94 | 1010.7 |
| 20260503110521 | 53 | 198 | 0.0 | 0.0 | 0.00 | 0.01 | 0.00 | 93 | 1011.0 |
| 20260503090511 | 53 | 180 | 0.0 | 0.0 | 0.00 | 0.01 | 0.00 | 91 | 1011.1 |
| 20260503081503 | 54 | 180 | 0.0 | 0.0 | 0.00 | 0.01 | 0.00 | 89 | 1011.4 |
| 20260503081004 | 54 | 180 | 0.0 | 0.0 | 0.00 | 0.01 | 0.00 | 88 | 1011.4 |
| 20260503080503 | 54 | 180 | 0.0 | 0.0 | 0.00 | 0.01 | 0.00 | 88 | 1011.5 |
| 20260503072501 | 54 | 180 | 0.0 | 0.0 | 0.00 | 0.01 | 0.00 | 88 | 1011.5 |
| 20260503072101 | 54 | 180 | 0.0 | 0.0 | 0.00 | 0.01 | 0.00 | 88 | 1011.4 |
| 20260503071615 | 54 | 180 | 0.0 | 0.0 | 0.00 | 0.01 | 0.00 | 87 | 1011.4 |
| 20260503071059 | 54 | 180 | 0.0 | 0.0 | 0.00 | 0.01 | 0.00 | 88 | 1011.5 |
| 20260503070559 | 54 | 180 | 0.0 | 0.0 | 0.00 | 0.01 | 0.00 | 88 | 1011.4 |
| 20260503070114 | 54 | 180 | 0.0 | 0.0 | 0.00 | 0.01 | 0.00 | 87 | 1011.5 |
| 20260503060120 | 55 | 180 | 0.0 | 0.0 | 0.00 | 0.01 | 0.01 | 87 | 1011.5 |
| 20260503055057 | 55 | 180 | 0.0 | 0.0 | 0.00 | 0.01 | 0.01 | 86 | 1011.5 |
| 20260503054600 | 55 | 180 | 0.0 | 0.0 | 0.00 | 0.01 | 0.01 | 86 | 1011.6 |
| 20260503054056 | 55 | 180 | 0.0 | 0.0 | 0.00 | 0.01 | 0.01 | 86 | 1011.6 |
| 20260503053556 | 55 | 180 | 0.0 | 0.0 | 0.00 | 0.01 | 0.01 | 86 | 1011.7 |
| 20260503053057 | 55 | 180 | 0.0 | 0.0 | 0.00 | 0.01 | 0.01 | 86 | 1011.7 |
| 20260503052557 | 55 | 180 | 0.0 | 0.0 | 0.00 | 0.01 | 0.01 | 86 | 1011.8 |
| 20260503052057 | 55 | 180 | 0.0 | 0.0 | 0.00 | 0.01 | 0.01 | 86 | 1011.7 |
| 20260503051556 | 55 | 180 | 0.0 | 0.0 | 0.00 | 0.01 | 0.01 | 86 | 1011.7 |
| 20260503051056 | 55 | 180 | 0.0 | 0.0 | 0.00 | 0.01 | 0.01 | 86 | 1011.7 |
| 20260503050558 | 55 | 180 | 0.0 | 0.0 | 0.00 | 0.01 | 0.01 | 86 | 1011.7 |
| 20260503045557 | 55 | 81 | 0.0 | 0.0 | 0.00 | 0.01 | 0.01 | 86 | 1011.8 |
| 20260503045054 | 55 | 77 | 0.0 | 0.0 | 0.00 | 0.01 | 0.01 | 87 | 1011.7 |
| 20260503044555 | 55 | 73 | 0.0 | 0.0 | 0.00 | 0.01 | 0.01 | 86 | 1011.7 |
| 20260503044055 | 56 | 73 | 0.0 | 0.0 | 0.00 | 0.01 | 0.01 | 86 | 1011.6 |
| 20260503043554 | 56 | 67 | 0.0 | 0.0 | 0.00 | 0.01 | 0.01 | 87 | 1011.5 |
| 20260503043057 | 56 | 67 | 0.0 | 0.0 | 0.00 | 0.01 | 0.01 | 87 | 1011.5 |
| 20260503042554 | 56 | 67 | 0.0 | 0.0 | 0.00 | 0.01 | 0.01 | 87 | 1011.4 |
| 20260503042055 | 56 | 67 | 0.0 | 0.0 | 0.00 | 0.01 | 0.01 | 87 | 1011.4 |
| 20260503041554 | 56 | 67 | 0.0 | 0.0 | 0.00 | 0.01 | 0.01 | 87 | 1011.4 |
| 20260503041057 | 56 | 67 | 0.0 | 0.0 | 0.00 | 0.01 | 0.01 | 87 | 1011.3 |
| 20260503040553 | 56 | 67 | 0.0 | 0.0 | 0.00 | 0.01 | 0.01 | 87 | 1011.2 |
| 20260503040055 | 56 | 192 | 0.0 | 0.0 | 0.00 | 0.01 | 0.01 | 87 | 1011.1 |
| 20260503035553 | 56 | 192 | 0.0 | 0.0 | 0.00 | 0.01 | 0.01 | 87 | 1011.0 |
| 20260503035056 | 56 | 192 | 0.0 | 0.0 | 0.00 | 0.01 | 0.01 | 87 | 1010.9 |
| 20260503034556 | 56 | 192 | 0.0 | 0.0 | 0.00 | 0.01 | 0.01 | 87 | 1010.9 |
| 20260503034052 | 56 | 192 | 0.0 | 0.0 | 0.00 | 0.01 | 0.01 | 86 | 1010.8 |
| 20260503033553 | 56 | 192 | 0.0 | 0.0 | 0.00 | 0.01 | 0.01 | 86 | 1010.8 |
| 20260503033059 | 56 | 192 | 0.0 | 0.0 | 0.00 | 0.01 | 0.01 | 86 | 1010.7 |
| 20260503032553 | 56 | 192 | 0.0 | 0.0 | 0.00 | 0.01 | 0.01 | 86 | 1010.7 |
| 20260503032055 | 56 | 192 | 0.0 | 0.0 | 0.00 | 0.01 | 0.01 | 86 | 1010.7 |
| 20260503031552 | 56 | 192 | 0.0 | 0.0 | 0.00 | 0.01 | 0.01 | 85 | 1010.6 |
| 20260503031052 | 56 | 192 | 0.0 | 0.0 | 0.00 | 0.01 | 0.01 | 84 | 1010.6 |
| 20260503030552 | 57 | 192 | 0.0 | 0.0 | 0.00 | 0.01 | 0.01 | 84 | 1010.6 |
| 20260503030051 | 57 | 192 | 0.0 | 0.0 | 0.00 | 0.01 | 0.01 | 83 | 1010.5 |
| 20260503025552 | 57 | 192 | 0.0 | 0.0 | 0.00 | 0.01 | 0.01 | 83 | 1010.5 |
| 20260503025055 | 57 | 192 | 0.0 | 0.0 | 0.00 | 0.01 | 0.01 | 82 | 1010.5 |
| 20260503024553 | 57 | 192 | 0.0 | 0.0 | 0.00 | 0.01 | 0.01 | 82 | 1010.5 |
| 20260503024051 | 58 | 192 | 0.0 | 0.0 | 0.00 | 0.01 | 0.01 | 82 | 1010.4 |
| 20260503023552 | 58 | 192 | 0.0 | 0.0 | 0.00 | 0.01 | 0.01 | 81 | 1010.4 |
| 20260503023052 | 58 | 192 | 0.0 | 0.0 | 0.00 | 0.01 | 0.01 | 82 | 1010.4 |
| 20260503022551 | 58 | 192 | 0.0 | 0.0 | 0.00 | 0.01 | 0.01 | 81 | 1010.4 |
| 20260503022055 | 58 | 192 | 0.0 | 0.0 | 0.00 | 0.01 | 0.01 | 81 | 1010.4 |
| 20260503021553 | 59 | 192 | 0.0 | 0.0 | 0.00 | 0.01 | 0.01 | 81 | 1010.3 |
| 20260503021050 | 59 | 196 | 0.0 | 0.0 | 0.00 | 0.01 | 0.01 | 80 | 1010.2 |
| 20260503020550 | 59 | 115 | 0.0 | 0.0 | 0.00 | 0.01 | 0.01 | 79 | 1010.3 |
| 20260503020049 | 59 | 121 | 0.0 | 0.0 | 0.00 | 0.01 | 0.01 | 79 | 1010.3 |
| 20260503015549 | 59 | 190 | 0.0 | 0.0 | 0.00 | 0.01 | 0.01 | 79 | 1010.3 |
| 20260503015051 | 60 | 190 | 0.0 | 0.0 | 0.00 | 0.01 | 0.01 | 79 | 1010.3 |
| 20260503014602 | 60 | 225 | 0.0 | 0.0 | 0.00 | 0.01 | 0.01 | 78 | 1010.3 |
| 20260503014049 | 60 | 205 | 0.0 | 0.0 | 0.00 | 0.01 | 0.01 | 77 | 1010.3 |
| 20260503013549 | 61 | 207 | 0.0 | 0.0 | 0.00 | 0.01 | 0.01 | 76 | 1010.4 |
| 20260503013049 | 61 | 211 | 0.0 | 0.0 | 0.00 | 0.01 | 0.01 | 75 | 1010.4 |
| 20260503012548 | 62 | 202 | 0.0 | 0.0 | 0.00 | 0.01 | 0.01 | 75 | 1010.4 |
| 20260503012047 | 62 | 198 | 0.0 | 0.0 | 0.00 | 0.01 | 0.01 | 74 | 1010.5 |
| 20260503011601 | 63 | 200 | 0.0 | 0.0 | 0.00 | 0.01 | 0.01 | 73 | 1010.4 |
| 20260503011047 | 63 | 217 | 0.0 | 0.0 | 0.00 | 0.01 | 0.01 | 72 | 1010.4 |
| 20260503010548 | 64 | 196 | 0.0 | 0.0 | 0.00 | 0.01 | 0.01 | 71 | 1010.4 |
| 20260503010047 | 64 | 205 | 0.0 | 0.0 | 0.00 | 0.01 | 0.01 | 70 | 1010.4 |
| 20260503005547 | 65 | 175 | 0.0 | 0.0 | 0.00 | 0.01 | 0.01 | 69 | 1010.4 |
| 20260503005047 | 65 | 163 | 0.0 | 0.0 | 0.00 | 0.01 | 0.01 | 70 | 1010.4 |
| 20260503004547 | 65 | 138 | 0.0 | 0.0 | 0.00 | 0.01 | 0.01 | 68 | 1010.4 |
| 20260503004047 | 66 | 150 | 0.0 | 0.0 | 0.00 | 0.01 | 0.01 | 69 | 1010.4 |
| 20260503003549 | 66 | 189 | 0.0 | 0.0 | 0.00 | 0.01 | 0.01 | 69 | 1010.4 |
| 20260503003050 | 66 | 144 | 0.0 | 0.0 | 0.00 | 0.01 | 0.01 | 67 | 1010.4 |
| 20260503002546 | 67 | 188 | 0.0 | 0.0 | 0.00 | 0.01 | 0.01 | 67 | 1010.4 |
| 20260503002045 | 67 | 183 | 0.0 | 0.0 | 0.00 | 0.01 | 0.01 | 67 | 1010.5 |
| 20260503001545 | 67 | 177 | 0.0 | 0.0 | 0.00 | 0.01 | 0.01 | 67 | 1010.5 |
| 20260503001045 | 67 | 151 | 0.0 | 0.0 | 0.00 | 0.01 | 0.01 | 66 | 1010.5 |
| 20260503000545 | 67 | 175 | 0.0 | 0.0 | 0.00 | 0.01 | 0.01 | 65 | 1010.5 |
| 20260503000045 | 67 | 177 | 0.0 | 0.0 | 0.00 | 0.01 | 0.01 | 66 | 1010.5 |
| 20260502235543 | 67 | 196 | 0.0 | 0.0 | 0.00 | 0.01 | 0.01 | 68 | 1010.6 |
| 20260502235042 | 67 | 181 | 0.0 | 0.0 | 0.00 | 0.01 | 0.01 | 68 | 1010.7 |
| 20260502234606 | 67 | 132 | 0.0 | 0.0 | 0.00 | 0.01 | 0.01 | 68 | 1010.8 |
| 20260502234041 | 67 | 195 | 0.0 | 0.0 | 0.00 | 0.01 | 0.01 | 69 | 1010.7 |
| 20260502233541 | 67 | 185 | 0.0 | 0.0 | 0.00 | 0.01 | 0.01 | 69 | 1010.8 |
| 20260502233041 | 67 | 182 | 0.0 | 0.0 | 0.00 | 0.01 | 0.01 | 68 | 1010.8 |
| 20260502232539 | 67 | 70 | 0.0 | 0.0 | 0.00 | 0.01 | 0.01 | 68 | 1010.8 |
| 20260502232038 | 67 | 152 | 0.0 | 0.0 | 0.00 | 0.01 | 0.01 | 68 | 1010.9 |
| 20260502231537 | 66 | 238 | 0.0 | 0.0 | 0.00 | 0.01 | 0.01 | 70 | 1011.0 |
| 20260502231037 | 66 | 242 | 0.0 | 0.0 | 0.00 | 0.01 | 0.01 | 68 | 1011.1 |
| 20260502230536 | 66 | 191 | 0.0 | 0.0 | 0.00 | 0.01 | 0.01 | 71 | 1011.1 |
| 20260502230034 | 66 | 182 | 0.0 | 0.0 | 0.00 | 0.01 | 0.01 | 69 | 1011.2 |
| 20260502225537 | 66 | 195 | 0.0 | 0.0 | 0.00 | 0.01 | 0.01 | 70 | 1011.4 |
| 20260502225032 | 66 | 85 | 0.0 | 0.0 | 0.00 | 0.01 | 0.01 | 71 | 1011.5 |
| 20260502224532 | 66 | 184 | 0.0 | 0.0 | 0.00 | 0.01 | 0.01 | 72 | 1011.5 |
| 20260502224033 | 66 | 196 | 0.0 | 0.0 | 0.00 | 0.01 | 0.01 | 72 | 1011.6 |
| 20260502223531 | 65 | 182 | 0.0 | 0.0 | 0.00 | 0.01 | 0.01 | 72 | 1011.7 |
| 20260502223031 | 65 | 186 | 0.0 | 0.0 | 0.00 | 0.01 | 0.01 | 72 | 1011.8 |
| 20260502222529 | 65 | 175 | 0.0 | 0.0 | 0.00 | 0.01 | 0.01 | 74 | 1011.9 |
| 20260502222029 | 65 | 241 | 0.0 | 0.0 | 0.00 | 0.01 | 0.01 | 71 | 1012.0 |
| 20260502221527 | 65 | 214 | 0.0 | 0.0 | 0.00 | 0.01 | 0.01 | 73 | 1012.1 |
| 20260502221027 | 65 | 215 | 0.0 | 0.0 | 0.00 | 0.01 | 0.01 | 72 | 1012.2 |
| 20260502220526 | 65 | 217 | 0.0 | 0.0 | 0.00 | 0.01 | 0.01 | 73 | 1012.4 |
| 20260502220025 | 64 | 166 | 0.0 | 0.0 | 0.00 | 0.01 | 0.01 | 75 | 1012.5 |
| 20260502215525 | 64 | 166 | 0.0 | 0.0 | 0.00 | 0.01 | 0.01 | 74 | 1012.6 |
| 20260502215025 | 64 | 88 | 0.0 | 0.0 | 0.00 | 0.01 | 0.01 | 74 | 1012.6 |
| 20260502214524 | 64 | 105 | 0.0 | 0.0 | 0.00 | 0.01 | 0.01 | 73 | 1012.7 |
| 20260502214028 | 64 | 175 | 0.0 | 0.0 | 0.00 | 0.01 | 0.01 | 72 | 1012.8 |
| 20260502213525 | 64 | 212 | 0.0 | 0.0 | 0.00 | 0.01 | 0.01 | 73 | 1012.8 |
| 20260502213035 | 64 | 214 | 0.0 | 0.0 | 0.00 | 0.01 | 0.01 | 73 | 1012.8 |
| 20260502212524 | 64 | 215 | 0.0 | 0.0 | 0.00 | 0.01 | 0.01 | 74 | 1012.7 |
| 20260502212022 | 64 | 193 | 0.0 | 0.0 | 0.00 | 0.01 | 0.01 | 76 | 1012.7 |
| 20260502211522 | 63 | 192 | 0.0 | 0.0 | 0.00 | 0.01 | 0.01 | 80 | 1012.7 |
| 20260502211019 | 61 | 313 | 0.0 | 0.0 | 0.00 | 0.01 | 0.01 | 81 | 1012.7 |
| 20260502210521 | 61 | 214 | 0.0 | 0.0 | 0.00 | 0.01 | 0.01 | 79 | 1012.8 |
| 20260502210017 | 61 | 188 | 0.0 | 0.0 | 0.00 | 0.01 | 0.01 | 81 | 1012.9 |
| 20260502205517 | 60 | 188 | 0.0 | 0.0 | 0.00 | 0.01 | 0.01 | 81 | 1013.0 |
| 20260502205017 | 60 | 183 | 0.0 | 0.0 | 0.00 | 0.01 | 0.01 | 81 | 1013.1 |
| 20260502204516 | 60 | 183 | 0.0 | 0.0 | 0.00 | 0.01 | 0.01 | 81 | 1013.1 |
| 20260502204019 | 60 | 153 | 0.0 | 0.0 | 0.00 | 0.01 | 0.01 | 82 | 1013.3 |
| 20260502203515 | 60 | 187 | 0.0 | 0.0 | 0.00 | 0.01 | 0.01 | 81 | 1013.5 |
| 20260502203015 | 60 | 187 | 0.0 | 0.0 | 0.00 | 0.01 | 0.01 | 82 | 1013.4 |
| 20260502202515 | 60 | 188 | 0.0 | 0.0 | 0.00 | 0.01 | 0.01 | 81 | 1013.5 |
| 20260502202014 | 60 | 188 | 0.0 | 0.0 | 0.00 | 0.01 | 0.01 | 81 | 1013.6 |
| 20260502201525 | 60 | 182 | 0.0 | 0.0 | 0.00 | 0.01 | 0.01 | 83 | 1013.6 |
| 20260502201013 | 60 | 187 | 0.0 | 0.0 | 0.00 | 0.01 | 0.01 | 83 | 1013.7 |
| 20260502200516 | 60 | 184 | 0.0 | 0.0 | 0.00 | 0.01 | 0.01 | 83 | 1013.8 |
| 20260502200012 | 59 | 221 | 0.0 | 0.0 | 0.00 | 0.01 | 0.01 | 83 | 1013.9 |
| 20260502195512 | 59 | 221 | 0.0 | 0.0 | 0.00 | 0.01 | 0.01 | 85 | 1014.0 |
| 20260502195011 | 59 | 221 | 0.0 | 0.0 | 0.00 | 0.01 | 0.01 | 85 | 1014.0 |
| 20260502194509 | 59 | 195 | 0.0 | 0.0 | 0.00 | 0.01 | 0.01 | 85 | 1014.0 |